Погода Троицкое

Погода Троицкое : погода сейчас, прогноз погоды и архив. Всё, что Вы хотите узнать о погоде Троицкое!

Хотите узнать прогноз погоды Троицкое? Тогда Вам сюда: Погода Троицкое

Поиск расширенной информации на нашем сайте:

Другие новости

Новости СМИ2

Главная страница сайта

Новости сайта

02.10.2013

Напоминаем, что на нашем новом сайте вы можете получить высокодетализированные прогнозы погоды по пунктам России, СНГ и мира (включающие важные для авиации метеовеличины, такие как направление и скорость ветра, видимость, явления погоды, количество и форма облачности, нижняя и верхняя граница облачности), а также ознакомиться с разнообразными материалами по авиационной метеорологии и подборкой полезных ссылок на эту тему.

Сайт Метеоцентр.Азия посвящён разработке технологий оптимизации авиаметеорологического обслуживания, включая проектирование и перспективное создание нескольких автоматизированных авиаметеорологических систем:
- система выпуска высокодетальных прогностических карт явлений погоды для нижнего воздушного пространства по России и ближнему зарубежью;
- система верификации прогнозов TAF (выпускаемых синоптиками официальных АМСГ РФ и ближнего зарубежья) и AUTOTAF (выпускаемых сайтом Метеоцентр.Азия) - выявление ошибок, онлайн-сопоставление с фактической погодой METAR, автоматическое внесение коррективов в прогнозы при резком отклонении фактической погоды от прогноза, подсчёт оправдываемости прогнозов по элементам и в целом;
- система обработки, анализа и отображения авиаметеорологической информации для применения провайдерами метеорологической информации.


Погода Троицкое - сегодня

Время (UTC), дата Ветер
(°,м/с) 
Видим.   Явления Облачность Т
(°С)
Тd
(°С)
f(%) Тe
(°С)
Pmin
(гПа)
dP
(гПа)
Po
(мм)
O2
(г/м3)
Тmin Tmax R s Состояние
почвы
21 18.01.17 090 (В) 4000 м  слаб. снег  10/0 средняя 
[As op]
-15.2 -17.2 85 -15  1023.9  -0.3  765  328  -16.1    0.8  29  равномерный
сухой снег
100% 
00 19.01.17 050 (СВ) 4000 м  слаб. снег  10/0 средняя 
[As op]
-15.3 -17.4 84 -15  1024.1  -0.3  765  328           
03 19.01.17 040 (СВ) 20000 м  {снег}  4/0 средняя, верхняя 
[Ac trans|Ci fib]
-13.3 -16.9 74 -13  1023.2  -0.8  764  325           
06 19.01.17 310 (СЗ) 20000 м  {снег}  10/0 средняя 
[Ac As]
-12.3 -16.1 73 -12  1022.8  -0.4  764  324           
09 19.01.17 200 (Ю) 20000 м    10/0 средняя 
[Ac As]
-15 -16.7 87 -15  1023.1  0.3  764  327    -11.7       
12 19.01.17 190 (Ю) 20000 м    10/0 средняя 
[Ac As]
-18.8 -21 83 -19  1022.8  -0.4  764  332           
15 19.01.17 190 (Ю) 4000 м  слаб. снег  10/0 средняя 
[As op]
-16.7 -18.9 83 -19  1022.2  -0.6  763  329           
18 19.01.17 190 (Ю) 4000 м  слаб. снег  10/0 средняя 
[As op]
-17.5 -19.9 82 -20  1021.8  -0.4  763  330           
21 19.01.17 тихо ()   4000 м  слаб. снег  10/0 средняя 
[As op]
-19 -21.3 82 -19  1021.4  -0.5  763  332  -19.3    0.7  30  равномерный
сухой снег
100% 
00 20.01.17 180 (Ю) 10 км  {снег}  10/0 средняя 
[Ac As]
-19.4 -21.9 81 -20  1021.8  0.4  763  333  -21.9         
03 20.01.17 360 (С) 20000 м  в посл. час снег  10/0 средняя, верхняя 
[Ac As|Ci fib]
-16.1 -19.6 74 -16  1021.4  -0.4  763  328           
06 20.01.17 320 (СЗ) 20000 м  {снег}  10/0 верхняя 
[Ci fib]
-15.5 -19.5 71 -16  1021.5  -0.1  763  327           
09 20.01.17 тихо ()   20000 м    10/0 средняя, верхняя 
[Ac trans|Ci fib]
-17.9 -20.1 83 -18  1022.8  1.3  764  331    -14.7       
12 20.01.17 190 (Ю) 20000 м    10/0 средняя, верхняя 
[Ac trans|Ci sp]
-18.5 -20.9 81 -23  1023.8  764  332           
15 20.01.17 180 (Ю) 20000 м    10/0 верхняя 
[Ci sp]
-20.3 -23.2 78 -25  1024.5  0.6  765  335           
18 20.01.17 180 (Ю) 20000 м    10/0 верхняя 
[Ci sp]
-20.4 -23.4 77 -21  1025  0.5  765  335           
21 20.01.17 190 (Ю) 20000 м    10/0 верхняя 
[Ci sp]
-20.1 -23.2 76 -23  1025.6  0.6  766  335  -21.2      33  равномерный
сухой снег
100% 
00 21.01.17 200 (Ю) 20000 м    10/0 верхняя 
[Ci sp]
-19.8 -23.4 73 -24  1026.6  767  335           
03 21.01.17 170 (Ю) 20000 м    10/0 верхняя 
[Cs]
-17.7 -23.1 63 -22  1026.4  0.1  766  332           
06 21.01.17 030 (СВ) 20000 м    10/0 верхняя 
[Ci sp]
-18.8 -23 69 -19  1025.7  -0.7  766  333           
09 21.01.17 070 (В) 20000 м    4/0 верхняя 
[Ci fib]
-23 -25.5 80 -23  1025.9  0.1  766  339    -16.5       
12 21.01.17 040 (СВ) 20000 м    4/0 верхняя 
[Ci fib]
-25.1 -28.4 74 -26  1026  766  342           
15 21.01.17 010 (С) 20000 м    ясно 
-28.3 -31.7 73 -29  1025.6  -0.5  766  346           
18 21.01.17 070 (В) 20000 м    ясно 
-30.4 -34.2 69 -31  1024.9  -0.8  765  349           
21 21.01.17 тихо ()   20000 м    ясно 
-31.9 -35.9 68 -32  1024.3  -0.6  765  351  -32      28  равномерный
сухой снег
100% 
Время (UTC), дата Ветер
(°,м/с) 
Видим.   Явления Облачность Т
(°С)
Тd
(°С)
f(%) Тe
(°С)
Pmin
(гПа)
dP
(гПа)
Po
(мм)
O2
(г/м3)
Тmin Tmax R s Состояние
почвы

Для получения пояснительной информации подведите курсор к названию столбца.

ПОГОДА Троицкое - архив

Всё, что Вы хотите узнать о погоде Троицкое - удобно и подробно!

Выберите нужную дату (начиная с 1 января 2015* года) и нажмите кнопку "Найти".
Будут отображены архивные сводки погоды по пункту Троицкое, начиная с указанной даты.


Отображать данные в формате CSV (для использования в таблицах Excel)


Внимание! Наш архив погоды предназначен исключительно для личного некоммерческого использования в познавательных целях. Если Вам необходимы официальные справки о состоянии погоды (для производственных, юридических, коммерческих и т.п. целей), обращайтесь в органы Росгидромета.

*Примечание: данная дата относится к архиву по метеостанциям СССР (Россия, СНГ, Балтия).
Архив по метеостанциям Зарубежной Европы и Азии (кроме Китая) хранится 10 дней, по другим регионам земного шара (Китай, Африка, Америка, Австралия, Океания) - 1 день.

Троицкое - район местоположения метеостанции


Название, широта, долгота, высота метеостанции:
Троицкое 49.4°ш. 136.6°д. 33 м над ур. моря [Российская Федерация]

Дополнительная информация

В oтличие oт бoльшинства пoгoдных сайтoв мы публикуем пoдрoбную метеoинфoрмацию в детальнoм прoфессиoнальнoм фoрмате.

Характеристики температуры и влажнoсти вoздуха измеряются на высoте 2 м в тени вдали oт зданий и деревьев.
Скoрoсть ветра измеряется на высoте 10 м (на урoвне рoста челoвека скoрoсть ветра ниже в 1.5-2 раза). Если метеoстанция нахoдится в гoрoде или в лесу, тo скoрoсть ветра занижена на 2-4 м/с пo сравнению с oткрытым местoм. Скoрoсть ветра над акватoриями крупных рек и oзёр, а также на вершинах хoлмoв на 2-5 м/с выше, чем в oбычных услoвиях.
Атмoсфернoе давление в разных тoчках местнoсти мoжет значительнo oтличаться oт давления на метеoстанции, в зависимoсти oт услoвий рельефа (при пoдъёме на 10 м давление пoнижается примернo на 1 мм рт.ст.).